Regional Weather Roundup
Issued by NWS Albany, NY

Home | Current Version | Previous Version | Graphics & Text | Print | Product List | Glossary On
Versions: 1 2 3 4 5 6 7 8 9 10 11 12 13 14 15 16 17 18 19 20 21 22 23 24 25 26 27
000
ASUS41 KALY 170610
RWRALY

NEW YORK STATE HOURLY WEATHER ROUNDUP
NATIONAL WEATHER SERVICE ALBANY NY
200 AM EDT TUE OCT 17 2017

NOTE: "FAIR" INDICATES FEW OR NO CLOUDS BELOW 12,000 FEET WITH NO
SIGNIFICANT WEATHER AND/OR NO OBSTRUCTIONS TO VISIBILITY.

NYZ032-033-038>043-046>054-057>066-NYZ062>081-082-084-170700-
EAST


CITY           SKY/WX    TMP DP  RH WIND       PRES   REMARKS
ALBANY         CLEAR     37  32  82 CALM      30.25R
GLENS FALLS    CLEAR     38  28  67 NW7       30.23R WCI  33
POUGHKEEPSIE   CLEAR     36  33  89 CALM      30.23R
MONTGOMERY     CLEAR     39  32  76 NW6       30.23R WCI  35
WHITE PLAINS   CLEAR     39  32  76 NW7       30.22R WCI  34
ISLIP          CLEAR     47  34  60 N12       30.21R
NEW YORK CITY  CLEAR     48  32  53 NW12      30.23R
CENTRAL PARK   CLEAR     46  30  53 VRB5      30.26R
$$

NYZ005>009-017-018-044>046-055-056-170700-
CENTRAL


CITY           SKY/WX    TMP DP  RH WIND       PRES   REMARKS
FULTON         CLEAR     34  31  88 CALM      30.27R
SYRACUSE       CLEAR     37  35  92 CALM      30.27R
ROME           CLEAR     34  32  92 N3        30.27S
ELMIRA         CLEAR     34  32  92 SW6       30.27S WCI  29
BINGHAMTON     CLEAR     34  28  79 NW5       30.22S WCI  30
MONTICELLO     PTCLDY    33  29  85 W5        30.23S WCI  29
$$

NYZ026>034-041>043-087-170700-
NORTH


CITY           SKY/WX    TMP DP  RH WIND       PRES   REMARKS
WATERTOWN      CLEAR     29  29 100 CALM      30.26R
FORT DRUM      NOT AVBL
OGDENSBURG     FAIR      32  31  97 CALM      30.25R
MASSENA        CLEAR     31  30  96 SW3       30.25R
SARANAC LAKE   CLEAR     25  24  96 CALM      30.18S
PLATTSBURGH    CLEAR     37  28  70 W5        30.22F WCI  33
$$

NYZ001>004-010>016-019>021-085-170700-
WEST


CITY           SKY/WX    TMP DP  RH WIND       PRES   REMARKS
NIAGARA FALLS    N/A     37  32  82 CALM      30.26S
BUFFALO        CLEAR     36  33  89 S5        30.26S WCI  32
DUNKIRK        CLEAR     35  32  88 S3        30.27S
JAMESTOWN      CLEAR     34  33  96 S5        30.27R WCI  30
WELLSVILLE     CLEAR     35  28  75 W5        30.25S WCI  31
ROCHESTER      CLEAR     35  35 100 SW6       30.27F WCI  30
$$

             KEY
       WCI = WIND CHILL INDEX
       VSB = VISIBILITY
       HX  = HEAT INDEX
$$




USA.gov is the U.S. government's official web portal to all federal, state and local government web resources and services.